TimeCET,TemperatureF,Dew PointF,Humidity,Sea Level PressureIn,VisibilityMPH,Wind Direction,Wind SpeedMPH,Gust SpeedMPH,PrecipitationIn,Events,Conditions,WindDirDegrees,DateUTC
12:25 AM,46.4,46.4,100,30.04,5.0,South,3.5,-,N/A,,Light Drizzle,180,2012-11-23 23:25:00
12:55 AM,46.4,46.4,100,30.04,4.3,South,3.5,-,N/A,Rain,Light Rain,170,2012-11-23 23:55:00
1:00 AM,46,45,96,30.06,5,South,4.5,,,Rain,Drizzle,180,2012-11-24 00:00:00
1:25 AM,46.4,44.6,93,30.04,5.0,South,3.5,-,N/A,,Drizzle,180,2012-11-24 00:25:00
1:55 AM,46.4,46.4,100,30.04,4.3,South,3.5,-,N/A,,Drizzle,190,2012-11-24 00:55:00
2:25 AM,46.4,46.4,100,30.04,3.7,SSW,3.5,-,N/A,,Light Drizzle,210,2012-11-24 01:25:00
2:55 AM,46.4,46.4,100,30.04,-9999.0,SSW,3.5,-,N/A,,Mostly Cloudy,210,2012-11-24 01:55:00
3:25 AM,46.4,46.4,100,30.04,1.1,SSW,2.3,-,N/A,Rain,Light Rain,210,2012-11-24 02:25:00
3:55 AM,46.4,46.4,100,30.04,0.8,SSW,2.3,-,N/A,,Light Drizzle,210,2012-11-24 02:55:00
4:00 AM,46,46,99,30.06,0,SSW,2.2,,,Rain,Drizzle,200,2012-11-24 03:00:00
4:25 AM,46.4,46.4,100,30.04,0.6,SSW,2.3,-,N/A,Rain,Light Rain,200,2012-11-24 03:25:00
4:55 AM,46.4,46.4,100,30.04,0.5,SSW,1.2,-,N/A,,Drizzle,210,2012-11-24 03:55:00
5:25 AM,46.4,46.4,100,30.04,0.4,South,2.3,-,N/A,Fog,Fog,190,2012-11-24 04:25:00
5:55 AM,46.4,46.4,100,30.04,-9999.0,South,2.3,-,N/A,Fog,Fog,170,2012-11-24 04:55:00
6:25 AM,46.4,46.4,100,30.04,0.6,Calm,Calm,-,N/A,,Overcast,0,2012-11-24 05:25:00
6:55 AM,46.4,46.4,100,30.04,0.6,Calm,Calm,-,N/A,,Overcast,0,2012-11-24 05:55:00
7:00 AM,46,46,99,30.07,1,Calm,Calm,,,Fog,Fog,,2012-11-24 06:00:00
7:25 AM,46.4,46.4,100,30.04,1.1,East,1.2,-,N/A,,Overcast,90,2012-11-24 06:25:00
7:55 AM,46.4,46.4,100,30.04,0.9,ESE,2.3,-,N/A,,Overcast,110,2012-11-24 06:55:00
8:25 AM,46.4,46.4,100,30.04,0.4,ESE,3.5,-,N/A,Fog,Fog,110,2012-11-24 07:25:00
8:55 AM,46.4,46.4,100,30.06,0.4,ESE,3.5,-,N/A,Fog,Fog,110,2012-11-24 07:55:00
9:25 AM,46.4,46.4,100,30.06,1.1,ESE,3.5,-,N/A,,Overcast,110,2012-11-24 08:25:00
9:55 AM,46.4,46.4,100,30.04,1.2,ESE,4.6,-,N/A,,Drizzle,110,2012-11-24 08:55:00
10:00 AM,47,47,100,30.07,2,SE,4.5,,,Rain,Light Drizzle,130,2012-11-24 09:00:00
10:25 AM,48.2,48.2,100,30.04,-9999.0,SE,5.8,-,N/A,,Mostly Cloudy,140,2012-11-24 09:25:00
10:55 AM,48.2,48.2,100,30.04,3.1,ESE,3.5,-,N/A,,Overcast,110,2012-11-24 09:55:00
11:25 AM,48.2,48.2,100,30.04,3.1,East,4.6,-,N/A,,Overcast,80,2012-11-24 10:25:00
11:55 AM,50.0,48.2,94,30.04,3.7,East,4.6,-,N/A,,Light Drizzle,80,2012-11-24 10:55:00
12:25 PM,50.0,48.2,94,30.01,4.3,East,5.8,-,N/A,,Overcast,90,2012-11-24 11:25:00
12:55 PM,50.0,48.2,94,30.01,5.6,East,4.6,-,N/A,,Overcast,80,2012-11-24 11:55:00
1:00 PM,49,49,99,30.04,6,East,6.7,,,,Mist,80,2012-11-24 12:00:00
1:25 PM,50.0,50.0,100,30.01,5.6,East,6.9,-,N/A,,Partly Cloudy,80,2012-11-24 12:25:00
1:55 PM,50.0,48.2,94,30.01,5.6,East,5.8,-,N/A,,Scattered Clouds,80,2012-11-24 12:55:00
2:25 PM,50.0,48.2,94,29.98,5.0,ENE,6.9,-,N/A,,Unknown,70,2012-11-24 13:25:00
2:55 PM,50.0,48.2,94,29.98,5.0,East,6.9,-,N/A,,Unknown,80,2012-11-24 13:55:00
3:25 PM,50.0,48.2,94,29.98,5.0,ENE,6.9,-,N/A,,Unknown,70,2012-11-24 14:25:00
3:55 PM,50.0,48.2,94,29.98,5.6,East,5.8,-,N/A,,Unknown,90,2012-11-24 14:55:00
4:00 PM,49,48,95,29.99,4,East,4.5,,,,Mist,90,2012-11-24 15:00:00
4:25 PM,48.2,48.2,100,29.95,4.3,East,6.9,-,N/A,,Unknown,80,2012-11-24 15:25:00
4:55 PM,48.2,48.2,100,29.95,3.1,East,6.9,-,N/A,,Mist,90,2012-11-24 15:55:00
5:25 PM,48.2,48.2,100,29.92,3.1,East,5.8,-,N/A,,Mist,90,2012-11-24 16:25:00
5:55 PM,48.2,48.2,100,29.92,3.1,East,5.8,-,N/A,,Mist,90,2012-11-24 16:55:00
6:25 PM,48.2,48.2,100,29.92,3.1,SE,3.5,-,N/A,Rain,Light Rain,130,2012-11-24 17:25:00
6:55 PM,48.2,48.2,100,29.92,3.1,ESE,5.8,-,N/A,Rain,Light Rain,120,2012-11-24 17:55:00
7:00 PM,49,48,94,29.93,4,East,6.7,,,Rain,Light Rain Showers,100,2012-11-24 18:00:00
7:25 PM,48.2,48.2,100,29.89,6.2,ENE,10.4,-,N/A,,Scattered Clouds,70,2012-11-24 18:25:00
7:55 PM,50.0,46.4,87,29.86,5.6,East,13.8,-,N/A,,Unknown,90,2012-11-24 18:55:00
8:25 PM,48.2,46.4,93,29.89,6.2,South,9.2,-,N/A,,Unknown,190,2012-11-24 19:25:00
8:55 PM,48.2,44.6,87,29.86,6.2,ESE,6.9,-,N/A,,Unknown,110,2012-11-24 19:55:00
9:25 PM,48.2,46.4,93,29.83,6.2,East,9.2,-,N/A,,Unknown,90,2012-11-24 20:25:00
9:55 PM,48.2,46.4,93,29.83,6.2,East,8.1,-,N/A,,Unknown,100,2012-11-24 20:55:00
10:00 PM,49,46,87,29.84,7,ESE,8.9,,,,Partly Cloudy,110,2012-11-24 21:00:00
10:25 PM,48.2,46.4,93,29.80,6.2,ESE,9.2,-,N/A,,Unknown,120,2012-11-24 21:25:00
10:55 PM,48.2,46.4,93,29.77,6.2,East,8.1,-,N/A,,Unknown,100,2012-11-24 21:55:00
11:25 PM,51.8,46.4,82,29.77,6.2,SE,9.2,-,N/A,,Unknown,130,2012-11-24 22:25:00
11:55 PM,53.6,46.4,77,29.74,6.2,SSE,11.5,-,N/A,,Unknown,150,2012-11-24 22:55:00